• In Czech Republic
  • List of Countries
  • For 7 days
  • Water Temperature
  • Satellite Maps
  • Weather Map
  • Weather Widgets
  • user-avatar
    Login

    Hourly Weather Musajid

    Today, 18 June, Monday

    Time Temperature Precipitation Wind Pressure Humidity
    00:00 +36°C° 0 mm 4 mps 748 mmHg 32%
    01:00 +35°C° 0 mm 4 mps 748 mmHg 33%
    02:00 +35°C° 0 mm 4 mps 748 mmHg 34%
    03:00 +35°C° 0 mm 5 mps 748 mmHg 34%
    04:00 +35°C° 0 mm 5 mps 748 mmHg 39%
    05:00 +36°C° 0 mm 5 mps 748 mmHg 44%
    06:00 +36°C° 0 mm 6 mps 749 mmHg 49%
    07:00 +39°C° 0 mm 6 mps 749 mmHg 42%
    08:00 +41°C° 0 mm 7 mps 749 mmHg 35%
    09:00 +44°C° 0 mm 8 mps 749 mmHg 27%
    10:00 +45°C° 0 mm 7 mps 749 mmHg 25%
    11:00 +46°C° 0 mm 7 mps 749 mmHg 23%
    12:00 +47°C° 0 mm 7 mps 749 mmHg 21%
    13:00 +46°C° 0 mm 7 mps 748 mmHg 22%
    14:00 +46°C° 0 mm 8 mps 748 mmHg 23%
    15:00 +46°C° 0 mm 8 mps 748 mmHg 24%
    16:00 +45°C° 0 mm 8 mps 748 mmHg 26%
    17:00 +44°C° 0 mm 7 mps 748 mmHg 28%
    18:00 +43°C° 0 mm 7 mps 748 mmHg 29%
    19:00 +41°C° 0 mm 6 mps 748 mmHg 36%
    20:00 +39°C° 0 mm 5 mps 748 mmHg 42%
    21:00 +37°C° 0 mm 5 mps 749 mmHg 48%
    22:00 +36°C° 0 mm 4 mps 749 mmHg 52%
    23:00 +36°C° 0 mm 4 mps 749 mmHg 56%

    Tomorrow, 19 June, Tuesday

    Time Temperature Precipitation Wind Pressure Humidity
    00:00 +35°C° 0 mm 3 mps 749 mmHg 60%
    01:00 +35°C° 0 mm 3 mps 749 mmHg 60%
    02:00 +35°C° 0 mm 3 mps 749 mmHg 59%
    03:00 +35°C° 0 mm 3 mps 749 mmHg 59%
    04:00 +35°C° 0 mm 3 mps 749 mmHg 58%
    05:00 +35°C° 0 mm 3 mps 749 mmHg 56%
    06:00 +35°C° 0 mm 3 mps 750 mmHg 55%
    07:00 +38°C° 0 mm 4 mps 750 mmHg 47%
    08:00 +41°C° 0 mm 5 mps 750 mmHg 38%
    09:00 +44°C° 0 mm 6 mps 751 mmHg 30%
    10:00 +45°C° 0 mm 6 mps 751 mmHg 28%
    11:00 +46°C° 0 mm 6 mps 751 mmHg 26%
    12:00 +46°C° 0 mm 6 mps 751 mmHg 24%
    13:00 +46°C° 0 mm 6 mps 750 mmHg 23%
    14:00 +47°C° 0 mm 6 mps 750 mmHg 22%
    15:00 +47°C° 0 mm 6 mps 750 mmHg 21%
    16:00 +46°C° 0 mm 6 mps 750 mmHg 22%
    17:00 +45°C° 0 mm 7 mps 750 mmHg 23%
    18:00 +44°C° 0 mm 7 mps 750 mmHg 25%
    19:00 +42°C° 0 mm 6 mps 750 mmHg 28%
    20:00 +40°C° 0 mm 6 mps 750 mmHg 31%
    21:00 +39°C° 0 mm 5 mps 751 mmHg 34%
    22:00 +39°C° 0 mm 5 mps 751 mmHg 34%
    23:00 +39°C° 0 mm 5 mps 750 mmHg 35%

    Day after tomorrow, 20 June, Wednesday

    Time Temperature Precipitation Wind Pressure Humidity
    00:00 +39°C° 0 mm 5 mps 750 mmHg 35%
    01:00 +39°C° 0 mm 6 mps 750 mmHg 37%
    02:00 +39°C° 0 mm 7 mps 750 mmHg 39%
    03:00 +39°C° 0 mm 7 mps 750 mmHg 41%
    04:00 +39°C° 0 mm 7 mps 750 mmHg 41%
    05:00 +39°C° 0 mm 8 mps 751 mmHg 41%
    06:00 +39°C° 0 mm 8 mps 751 mmHg 41%
    07:00 +40°C° 0 mm 8 mps 751 mmHg 34%
    08:00 +43°C° 0 mm 9 mps 751 mmHg 26%
    09:00 +45°C° 0 mm 9 mps 752 mmHg 19%
    10:00 +45°C° 0 mm 8 mps 751 mmHg 18%
    11:00 +46°C° 0 mm 8 mps 751 mmHg 18%
    12:00 +46°C° 0 mm 7 mps 751 mmHg 17%
    13:00 +46°C° 0 mm 7 mps 751 mmHg 18%
    14:00 +46°C° 0 mm 7 mps 750 mmHg 19%
    15:00 +46°C° 0 mm 6 mps 750 mmHg 19%
    16:00 +45°C° 0 mm 6 mps 750 mmHg 21%
    17:00 +44°C° 0 mm 6 mps 750 mmHg 23%
    18:00 +42°C° 0 mm 5 mps 750 mmHg 25%
    19:00 +41°C° 0 mm 4 mps 750 mmHg 29%
    20:00 +38°C° 0 mm 3 mps 751 mmHg 33%
    21:00 +37°C° 0 mm 3 mps 751 mmHg 37%
    22:00 +36°C° 0 mm 2 mps 751 mmHg 40%
    23:00 +34°C° 0 mm 1 mps 750 mmHg 43%

    21 June, Thursday

    Time Temperature Precipitation Wind Pressure Humidity
    00:00 +34°C° 0 mm 1 mps 750 mmHg 46%
    01:00 +34°C° 0 mm 2 mps 750 mmHg 46%
    02:00 +34°C° 0 mm 3 mps 750 mmHg 46%
    03:00 +34°C° 0 mm 4 mps 750 mmHg 46%
    04:00 +34°C° 0 mm 4 mps 750 mmHg 48%
    05:00 +34°C° 0 mm 4 mps 751 mmHg 50%
    06:00 +34°C° 0 mm 4 mps 751 mmHg 52%
    07:00 +37°C° 0 mm 4 mps 751 mmHg 44%
    08:00 +40°C° 0 mm 4 mps 751 mmHg 37%
    09:00 +42°C° 0 mm 4 mps 752 mmHg 29%
    10:00 +43°C° 0 mm 4 mps 751 mmHg 27%
    11:00 +44°C° 0 mm 4 mps 751 mmHg 25%
    12:00 +45°C° 0 mm 3 mps 751 mmHg 24%
    13:00 +45°C° 0 mm 3 mps 750 mmHg 24%
    14:00 +45°C° 0 mm 4 mps 750 mmHg 25%
    15:00 +45°C° 0 mm 4 mps 750 mmHg 26%
    16:00 +44°C° 0 mm 4 mps 750 mmHg 29%
    17:00 +43°C° 0 mm 3 mps 750 mmHg 31%
    18:00 +42°C° 0 mm 3 mps 750 mmHg 34%
    19:00 +40°C° 0 mm 2 mps 750 mmHg 38%
    20:00 +38°C° 0 mm 2 mps 751 mmHg 42%
    21:00 +36°C° 0 mm 1 mps 751 mmHg 45%
    22:00 +37°C° 0 mm 2 mps 751 mmHg 44%
    23:00 +37°C° 0 mm 2 mps 750 mmHg 43%

    22 June, Friday

    Time Temperature Precipitation Wind Pressure Humidity
    00:00 +37°C° 0 mm 3 mps 750 mmHg 41%
    01:00 +36°C° 0 mm 4 mps 750 mmHg 39%
    02:00 +36°C° 0 mm 4 mps 749 mmHg 36%
    03:00 +36°C° 0 mm 5 mps 749 mmHg 34%
    04:00 +36°C° 0 mm 6 mps 749 mmHg 34%
    05:00 +38°C° 0 mm 6 mps 750 mmHg 33%
    06:00 +38°C° 0 mm 7 mps 750 mmHg 33%
    07:00 +40°C° 0 mm 7 mps 750 mmHg 30%
    08:00 +43°C° 0 mm 8 mps 750 mmHg 28%
    09:00 +45°C° 0 mm 8 mps 751 mmHg 26%
    10:00 +46°C° 0 mm 8 mps 750 mmHg 23%
    11:00 +48°C° 0 mm 8 mps 750 mmHg 20%
    12:00 +49°C° 0 mm 7 mps 750 mmHg 17%
    13:00 +49°C° 0 mm 7 mps 749 mmHg 17%
    14:00 +47°C° 0 mm 7 mps 749 mmHg 17%
    15:00 +47°C° 0 mm 7 mps 749 mmHg 17%
    16:00 +46°C° 0 mm 7 mps 749 mmHg 18%
    17:00 +45°C° 0 mm 7 mps 749 mmHg 19%
    18:00 +44°C° 0 mm 7 mps 749 mmHg 20%
    19:00 +42°C° 0 mm 6 mps 749 mmHg 24%
    20:00 +41°C° 0 mm 5 mps 750 mmHg 27%
    21:00 +40°C° 0 mm 5 mps 750 mmHg 30%
    22:00 +39°C° 0 mm 5 mps 750 mmHg 32%
    23:00 +39°C° 0 mm 5 mps 749 mmHg 35%

    23 June, Saturday

    Time Temperature Precipitation Wind Pressure Humidity
    00:00 +39°C° 0 mm 5 mps 749 mmHg 37%
    01:00 +39°C° 0 mm 6 mps 749 mmHg 38%
    02:00 +38°C° 0 mm 6 mps 749 mmHg 39%
    03:00 +38°C° 0 mm 7 mps 749 mmHg 41%
    04:00 +38°C° 0 mm 8 mps 749 mmHg 41%
    05:00 +38°C° 0 mm 8 mps 750 mmHg 41%
    06:00 +39°C° 0 mm 9 mps 750 mmHg 42%
    07:00 +40°C° 0 mm 9 mps 750 mmHg 35%
    08:00 +43°C° 0 mm 10 mps 750 mmHg 28%
    09:00 +45°C° 0 mm 10 mps 751 mmHg 20%
    10:00 +45°C° 0 mm 10 mps 750 mmHg 19%
    11:00 +47°C° 0 mm 10 mps 750 mmHg 18%
    12:00 +47°C° 0 mm 10 mps 750 mmHg 17%
    13:00 +47°C° 0 mm 10 mps 749 mmHg 17%
    14:00 +47°C° 0 mm 10 mps 749 mmHg 16%
    15:00 +45°C° 0 mm 10 mps 749 mmHg 16%
    16:00 +45°C° 0 mm 9 mps 749 mmHg 17%
    17:00 +44°C° 0 mm 9 mps 749 mmHg 18%
    18:00 +43°C° 0 mm 8 mps 749 mmHg 19%
    19:00 +41°C° 0 mm 7 mps 749 mmHg 22%
    20:00 +40°C° 0 mm 7 mps 749 mmHg 25%
    21:00 +39°C° 0 mm 6 mps 749 mmHg 29%
    22:00 +38°C° 0 mm 6 mps 749 mmHg 31%
    23:00 +38°C° 0 mm 6 mps 749 mmHg 33%
    Show more